User: anonymous   Login
Location: Unspecified
(0.0000°N, 0.0000°E)
Time: 19:17:23
(UTC+00:00)
Language:

PELICAN-5 - Orbit

View from above orbital plane
View from above orbital plane
View from above satellite
View from above satellite

Ground track
Ground track

The orbit is defined by the following mean orbital elements,

1 66667U          26145.17632035 +.00000000 +00000-0 +16090-3 0 00008
2 66667  97.4124 220.2285 0004603  70.8355 289.3382 15.28858512    02
Epoch (UTC): 25 May 2026 04:13:54
Eccentricity: 0.0004603
inclination: 97.4124°
perigee height: 476 km
apogee height: 482 km
right ascension of ascending node: 220.2285°
argument of perigee: 70.8355°
revolutions per day: 15.28858512
mean anomaly at epoch: 289.3382°

The dashed part of the orbit path shows where the satellite is in the earth's shadow,  

DLR